Location: Aix-en-Ergny
(50.5839°N, 1.9996°E)
Time: 20:55:30
(UTC+00:00)

Cosmos 2237 Rocket - Pass Details

Date: 23 October 2019
Orbit: 833 x 851 km, 71.0° (Epoch: 18 November)

Event Time Altitude Azimuth Distance (km) Brightness Sun altitude
Exits shadow 05:43:43 - 275° (W) 2,559 4.0 -7.6°
Reaches altitude 10° 05:44:01 10° 277° (W) 2,479 3.9 -7.5°
Maximum altitude 05:48:11 20° 324° (NW) 1,855 3.6 -6.9°
Drops below altitude 10° 05:52:23 10° 12° (NNE) 2,491 4.7 -6.2°
Sets 05:55:32 0° 29° (NNE) 3,430 5.6 -5.7°
